AQI (32)

Current Conditions for Foresthill, CA. Sunny, Dry   
Visibility: 10 miles
Foresthill Advisory text: Warning Description: Special Statement Warning Date: 1:33 PM PDT on July 27, 2015

  Summary / Temperature 

Current Temperature
75.2°F
24°C
(24/hr Ago)
63.5°F
(Apparent temp)
68.7°F
Comfortable
Heat Index
74.2°F 

75.2°F/ 24°C
Little or no discomfort

 Temp Rate:

 24/hr Difference:

 Avg Running Temp:

 Todays High:

 Todays Low:

 Y-days High:

 Y-days Low:

 Todays HeatIdx:

 Y-days HeatIdx:

 Evapotranspiration:

+1.3°F/hr 

+11.7°F

73.6°F

75.2°F 8:19am

68.8°F 4:14am

86.5°F 1:52pm

62.2°F 7:26am

74.2°F 8:19am

83.2°F 2:32pm

0.032 in

115' Above Ground

 Temperature:

 6'AGL VRS 115'AGL:

 Avg Running Temp:

 Humidity:

 Todays High:

 Todays Low:

 Y-days High:

 Y-days Low:

79.0°F 

+3.8°F

77.0°F

22% 

79.0°F 8:17am

72.0°F 1:42am

85.0°F 2:19pm

65.0°F 5:12am

Temp & Humidity Graphs

  Wind 

Wind Speed

 15.0 mph

Gusting to

 19.0 mph

Wind from ESE

111°  ESE

Moderate breeze

 Avg speed:

 Wind Run:

 Peak Gust:

  7.0 mph 

36.0 miles

  30.0 mph 5:29am

  Almanac  

Moon age: 11 days,8 hours,25 minutes,87%

Waxing Gibbous
90%
Illuminated
11 days in cycle

 Moonrise:

 Moonset:

 Sunrise:

 Sunset:

 Solar Noon:

5:55pm

3:16am

6:01am

8:19pm

1:09pm

1min 43s less daylight tomorrow 

  Solar Radiation 

(Current Solar)
  362 W/m2 (87%)
(Todays High)
 369 W/m2@8:18am
Feels like: 81.9°F in the sun

Rain

 Rain Today:

 Rain Rate (/hr):

 Rain last hour:

 Rain Yesterday:

 This Month:

 Season Total:

25 Days Since Last Rain Day

0.00 in

0.000 in

0.00 in

0.00 in

0.01 in

0.01 in

Updated Time

Updated: 7/28/15  8:20am

(Updated  sec ago)

Humidity & Barometer

 Humidity:

 Wetbulb:

 Dew Point:

 Barometer:

26% 

58.4°F 

37.9°F 

29.872 inHg 

 Baro Trend:  Steady 
Northern Calif
Preparedness
Fire 
Level 

    UV Index  

(Current UV)
1.3  Low
(Todays High) @ 8:16am
1.3   Low

Weather Underground 5 day Forecast

Tue Wed Thu Fri Sat
Clear Clear Partly Cloudy Mostly Cloudy Mostly Cloudy
Clear Clear Partly Cloudy Mostly Cloudy Mostly Cloudy
98 100 102 97 94
72 74 73 71 69

Foresthill Probe 2 Stats  
Foresthill Probe 2: is located on Thomas Street
at 3000 feet. The main Foresthill Weather site
is located on Melody ln at the 2860 foot elevation

Light Air
77.0°F
25°C
Temp Rate:
+0.9°F
Calm
Gusting to
7.0 mph
(Humidity)
25%
Wind from ESE
122°  ESE
Updated: 28/07/15 - 08:18:57
 Todays High: 77.0°F 08:18
 Todays Low: 65.9°F 02:52
 Rain Today: 0.00 in
 Season Total: 0.01 in

Foresthill Wx: Monthly,Yearly, Highs and Lows 

Foresthill  
This Weather Data is coming from the main Foresthill
Weather site located on Melody ln at the 2860 foot
elevation
Not Foresthill Probe 2
Weather Data
Month
  High
Month
  Low
Year
High
Year
Low
Temp 91.8F
7/2/15
55.9F
7/10/15
94.6F
6/30/15
29.7F
1/1/15
Humidity 87%
7/10/15
17%
7/22/15
98%
4/25/15
11%
6/21/15
Heat Index 90.3F
7/4/15
60.8F
7/10/15
93.2F
6/30/15
32.1F
1/1/15
Wind Chill 91.8F
7/2/15
52.1F
7/10/15
94.6F
6/30/15
22.3F
4/7/15
Wind Gust 30 mph
7/28/15
0 mph
7/1/15
52 mph
2/6/15
0 mph
1/1/15
Barometer 30.09 in
7/24/15
29.72 in
7/22/15
30.51 in
1/4/15
29.66 in
6/14/15
ET 0.24 in
7/5/15
0.00 in
7/1/15
0.28 in
6/18/15
0.00 in
1/1/15
Dew Point 64.0F
7/4/15
34.5F
7/22/15
68.1F
6/11/15
10.0F
1/1/15
Infrared Satellite Regional Radar Satellite Imagery Sacramento,CA.  (click to enlarge)
NWS Weather Forecast - Outlook: Today and Tonight
Today

Today: Sunny, with a high near 93. East wind 6 to 13 mph becoming southwest in the afternoon.
Sunny

Hi 93 °F
NWS forecast: Sunny, with a high near 93. East wind 6 to 13 mph becoming southwest in the afternoon.
Tonight

Tonight: Clear, with a low around 72. Light and variable wind becoming east 5 to 9 mph after midnight.
Clear

Lo 72 °F
NWS forecast: Clear, with a low around 72. Light and variable wind becoming east 5 to 9 mph after midnight.
NWS Weather Forecast - Summary
Updated: Tuesday, July 28, 2015 - 5:17am (PDT)
YR.NO 10 Day Weather forecast
Last update: 07/28/2015 @ 00:40
Next update: 07/28/2015 @ 13:00
Provided by: 22
      Temperature Precipitation Pressure Wind  
Today
07/28/2015
08:00 11:00 75°F   29.86 inHg Gentle breeze from east-northeast 8 mph
  11:00 17:00 90°F   29.84 inHg Light air from west-northwest 1 mph
  17:00 23:00 93°F   29.79 inHg Gentle breeze from west 8 mph
  23:00 05:00 72°F   29.86 inHg Light air from east 2 mph
    (Click to enlarge)
meteogram

    Forecast for next 9 days

      Temperature Precip Pressure Wind  
Wednesday
07/29/2015
05:00 11:00 68°F   29.84 inHg Light breeze from east-northeast 7 mph
  11:00 17:00 93°F   29.88 inHg Light breeze from southwest 5 mph
  17:00 23:00 95°F   29.86 inHg Light breeze from west-southwest 6 mph
  23:00 05:00 75°F   29.93 inHg Light air from east 2 mph
      Temperature Precip Pressure Wind  
Thursday
07/30/2015
05:00 11:00 64°F   29.93 inHg Light breeze from east-northeast 5 mph
  11:00 17:00 95°F   29.95 inHg Light breeze from west 6 mph
  17:00 23:00 95°F   29.89 inHg Light breeze from west 7 mph
  23:00 05:00 75°F   29.96 inHg Light air from east-northeast 3 mph
      Temperature Precip Pressure Wind  
Friday
07/31/2015
05:00 11:00 68°F   29.91 inHg Light breeze from east-northeast 5 mph
  11:00 17:00 86°F   29.98 inHg Light air from south 2 mph
  17:00 23:00 91°F   29.88 inHg Light breeze from west-southwest 7 mph
  23:00 05:00 73°F   29.91 inHg Light air from east 2 mph
      Temperature Precip Pressure Wind  
Saturday
08/01/2015
05:00 11:00 64°F   29.88 inHg Light breeze from east-northeast 4 mph
  11:00 17:00 91°F   29.90 inHg Light breeze from west-southwest 6 mph
  17:00 23:00 91°F   29.84 inHg Light breeze from west-southwest 7 mph
  23:00 05:00 73°F   29.86 inHg Light air from east 2 mph
      Temperature Precip Pressure Wind  
Sunday
08/02/2015
05:00 11:00 64°F   29.83 inHg Light breeze from east-northeast 4 mph
  11:00 17:00 91°F   29.85 inHg Light breeze from southwest 5 mph
  17:00 23:00 93°F   29.79 inHg Light breeze from west-southwest 6 mph
  23:00 05:00 75°F   29.82 inHg Light air from east 2 mph
      Temperature Precip Pressure Wind  
Monday
08/03/2015
05:00 11:00 64°F   29.81 inHg Light breeze from east-northeast 5 mph
  11:00 17:00 91°F   29.84 inHg Light breeze from southwest 5 mph
  17:00 23:00 93°F   29.79 inHg Light breeze from southwest 6 mph
  23:00 05:00 73°F   29.85 inHg Light air from east 3 mph
      Temperature Precip Pressure Wind  
Tuesday
08/04/2015
05:00 11:00 63°F   29.85 inHg Light breeze from east-northeast 6 mph
  11:00 17:00 91°F   29.87 inHg Light breeze from southwest 6 mph
  17:00 23:00 93°F   29.82 inHg Light breeze from southwest 7 mph
  23:00 05:00 73°F   29.87 inHg Light air from east 2 mph
      Temperature Precip Pressure Wind  
Wednesday
08/05/2015
05:00 11:00 64°F   29.85 inHg Light breeze from east-northeast 6 mph
  11:00 17:00 90°F   29.87 inHg Light breeze from southwest 7 mph
  17:00 23:00 91°F   29.83 inHg Light breeze from southwest 7 mph
  23:00 05:00 72°F   29.85 inHg Light air from southeast 3 mph
      Temperature Precip Pressure Wind  
Thursday
08/06/2015
05:00 11:00 64°F   29.83 inHg Light breeze from east 4 mph
  11:00 17:00 88°F   29.86 inHg Light breeze from south-southwest 6 mph

Weather History For Tuesday, July 28, 2015


On this Day - In Weather History ...
Data courtesy of weatherforyou.com
powered by Cumulus v1.9.3 (1059)
Ambient Weather VWS v14.00
Top Contact Website Map Copyright © 2007 - 2015 Foresthillweather.com Never base important decisions on this or any weather information obtained from the Internet